Weather in Lobez

Poland     53°38′11″N   15°37′20″E
temp.,
°C
wind,
m/s
gust,
m/s
humid.,
%
clouds,
%
prec.,
mm/h
press.,
hPa
HPBL,
m
17 april, sat
sat1723:00+3n51087100 0.6 1022487
02:00+3n4990100 0.6 1021340
05:00+4n259190 0.0 1021160
08:00+5n3790100 0.0 1022215
11:00+7nne488491 0.0 1021296
14:00+13nne6867100 0.1 1020856
17:00+11nne5980100 0.5 1020529
20:00+6nne489370 0.8 1021244
18 april, sun
sun1823:00+5ne379713 0.0 1021137
02:00+5ne359698 0.0 102188
05:00+5ne3696100 0.0 1021118
08:00+8ne3989100 0.0 1021256
11:00+13ene4669100 0.0 1021783
14:00+13ene3567100 1.1 10211114
17:00+9ne2495100 2.6 1020211
20:00+8s1397100 11.0 1021163
19 april, mon
mon1923:00+8ne3697100 2.8 1021204
02:00+8ne2295100 2.8 102158
05:00+8ne2396100 0.0 102175
08:00+9ene259291 0.3 1021187
11:00+14ese356757 1.1 1020735
14:00+16ene245092 1.3 10201849
17:00+14nne567049 1.6 1018688
20:00+9nne410845 2.7 1018224
20 april, tue
tue2023:00+6ne488919 0.0 1018160
02:00+6ene358821 0.0 101893
05:00+5ene359499 0.0 1017110
08:00+7ene378996 0.1 1017310
11:00+11e446011 0.0 10171244
14:00+12ene555893 0.1 10161114
17:00+11ne4459100 0.0 10151052
20:00+9ne3774100 0.0 1015284
21 april, wed
wed2123:00+7nne357943 0.0 1015113
02:00+6n237993 0.0 101569
05:00+4n22884 0.0 101523
08:00+7wnw357525 0.0 1015241
11:00+11w685699 0.0 10141287
14:00+9nw7982100 0.8 10151249
17:00+9nw7115411 0.2 10151421
20:00+6wnw510675 0.2 1015529